EW0478 Skillman NJ US current weather conditions

sailwx.info

Wind from 304 at 3 knots gusting 10

Air temperature 3.9° C
Dewpoint -2.9° C

Last reported at 2020-Jan-28 22:04 UTC.
Time now 2020-Jan-28 23:15 UTC

Location: N 40°25' W 074°42'.
View on Google Maps.

See reports from other nearby stations

  
Tides and Currents Weather Stations Pressure Air Temp Water Temp Dewpoint Dewpoint Depression Visibility Wind Speed Wind Dir Waves Ship Positions
date/time (UTC)wind fromknots sea level pressurealtimeterstation pressurevisibilityair tempwater tempwave heightnotes
2020-Jan-28 22:04 304 3 gusting 10 3.9
2020-Jan-28 21:55 309 3 gusting 7 3.9
2020-Jan-28 21:46 306 2 gusting 6 3.9
2020-Jan-28 21:37 308 3 gusting 7 3.9
2020-Jan-28 21:28 313 2 gusting 9 3.9
2020-Jan-28 21:19 307 3 gusting 11 3.9
2020-Jan-28 21:10 309 2 gusting 6 3.9
2020-Jan-28 21:01 316 2 gusting 9 3.9
2020-Jan-28 20:52 314 1 gusting 9 3.9
2020-Jan-28 20:43 321 3 gusting 10 3.9
2020-Jan-28 20:34 337 3 gusting 10 3.9
2020-Jan-28 20:25 330 4 gusting 7 3.9
2020-Jan-28 20:16 313 3 gusting 10 3.9
2020-Jan-28 20:07 311 2 gusting 10 3.9
2020-Jan-28 19:58 340 4 gusting 11 3.9
2020-Jan-28 19:49 320 4 gusting 11 3.9
2020-Jan-28 19:40 328 3 gusting 12 3.9
2020-Jan-28 19:31 319 2 gusting 8 3.9
2020-Jan-28 19:22 302 3 gusting 9 3.9
2020-Jan-28 19:13 315 2 gusting 7 3.9
2020-Jan-28 19:04 309 4 gusting 9 3.9
2020-Jan-28 18:55 310 3 gusting 11 3.9
2020-Jan-28 18:46 318 3 gusting 11 3.9
2020-Jan-28 18:37 304 3 gusting 7 3.9
2020-Jan-28 18:28 319 3 gusting 9 3.9
2020-Jan-28 18:19 316 4 gusting 9 3.9
2020-Jan-28 18:10 300 3 gusting 8 4.4
2020-Jan-28 18:01 316 3 gusting 9 4.4
2020-Jan-28 17:52 304 4 gusting 10 4.4
2020-Jan-28 17:43 306 4 gusting 10 5.6
2020-Jan-28 17:34 305 5 gusting 13 6.1
2020-Jan-28 17:25 323 5 gusting 12 6.7
2020-Jan-28 17:16 314 6 gusting 12 6.1
2020-Jan-28 17:07 323 6 gusting 16 6.1
2020-Jan-28 16:58 321 7 gusting 19 5.6
2020-Jan-28 16:49 319 6 gusting 13 5.6
2020-Jan-28 16:40 329 5 gusting 12 5.6
2020-Jan-28 16:31 322 6 gusting 13 5.6
2020-Jan-28 16:22 315 6 gusting 13 5.6
2020-Jan-28 16:13 321 7 gusting 14 5.6
2020-Jan-28 16:04 318 6 gusting 15 5.6
2020-Jan-28 15:55 304 6 gusting 15 5.6
2020-Jan-28 15:46 319 6 gusting 13 5.6
2020-Jan-28 15:37 326 6 gusting 17 5.6
2020-Jan-28 15:28 322 6 gusting 13 5.0
2020-Jan-28 15:19 317 6 gusting 12 5.0
2020-Jan-28 15:10 319 5 gusting 11 5.6
2020-Jan-28 15:01 325 4 gusting 13 5.0
2020-Jan-28 14:52 311 6 gusting 13 5.0
2020-Jan-28 14:43 322 4 gusting 11 5.0
2020-Jan-28 14:34 314 3 gusting 8 4.4
2020-Jan-28 14:25 317 4 gusting 13 4.4
2020-Jan-28 14:16 312 5 gusting 14 4.4
2020-Jan-28 14:07 308 4 gusting 10 3.9
2020-Jan-28 13:58 303 3 gusting 11 3.9
2020-Jan-28 13:49 298 2 gusting 6 3.3
2020-Jan-28 13:40 289 3 gusting 11 3.3
2020-Jan-28 13:31 297 2 gusting 5 2.8
2020-Jan-28 13:22 289 1 gusting 6 2.2
2020-Jan-28 13:13 290 1 gusting 4 2.2
2020-Jan-28 13:04 282 0 gusting 2 1.7
2020-Jan-28 12:55 276 0 gusting 1 1.1
2020-Jan-28 12:46 284 0 gusting 2 1.1
2020-Jan-28 12:37 275 0 gusting 2 1.1
2020-Jan-28 12:28 281 0 gusting 1 0.6
2020-Jan-28 12:19 267 0.6
2020-Jan-28 12:10 274 1.1
2020-Jan-28 12:01 281 1.1
2020-Jan-28 11:52 281 0 gusting 2 1.1
2020-Jan-28 11:43 275 1.1
2020-Jan-28 11:34 276 1.1
2020-Jan-28 11:25 285 1.1
2020-Jan-28 11:16 278 1.7
2020-Jan-28 11:07 284 0 gusting 3 1.7
2020-Jan-28 10:58 294 1.7
2020-Jan-28 10:49 305 2.2
2020-Jan-28 10:40 294 0 gusting 2 2.2
2020-Jan-28 10:31 307 0 gusting 2 2.2
2020-Jan-28 10:22 297 0 gusting 2 2.2
2020-Jan-28 10:13 310 0 gusting 5 2.2
2020-Jan-28 10:04 314 2.2
2020-Jan-28 09:55 310 0 gusting 4 2.2
2020-Jan-28 09:46 300 0 gusting 3 2.2
2020-Jan-28 09:37 284 0 gusting 3 2.8
2020-Jan-28 09:28 292 0 gusting 5 2.8
2020-Jan-28 09:19 305 1 gusting 6 2.8
2020-Jan-28 09:10 303 1 gusting 6 2.8
2020-Jan-28 09:01 312 0 gusting 6 2.8
2020-Jan-28 08:52 300 1 gusting 6 2.8
2020-Jan-28 08:43 297 1 gusting 6 2.8
2020-Jan-28 08:34 296 1 gusting 6 2.8
2020-Jan-28 08:25 293 0 gusting 3 2.8
2020-Jan-28 08:16 303 0 gusting 3 2.8
2020-Jan-28 08:07 284 0 gusting 2 2.8
2020-Jan-28 08:00 270 2.8
2020-Jan-28 07:58 279 0 gusting 2 2.8
2020-Jan-28 07:49 290 0 gusting 2 2.8
2020-Jan-28 07:45 291 2.8
2020-Jan-28 07:31 301 0 gusting 3 2.8
2020-Jan-28 07:22 308 1 gusting 3 3.3
2020-Jan-28 07:15 324 1 gusting 7 2.8
2020-Jan-28 07:13 324 2 gusting 7 3.3
2020-Jan-28 07:04 346 2 gusting 6 3.3
2020-Jan-28 06:55 330 3 gusting 8 3.3
2020-Jan-28 06:46 328 3 gusting 9 3.3
2020-Jan-28 06:37 325 2 gusting 6 3.3
2020-Jan-28 06:30 285 3 gusting 8 3.3
2020-Jan-28 06:28 312 3 gusting 8 3.3
2020-Jan-28 06:19 307 1 gusting 5 3.3
2020-Jan-28 06:10 305 1 gusting 6 3.3
2020-Jan-28 06:01 292 1 gusting 6 3.3
2020-Jan-28 05:52 296 2 gusting 6 3.3
2020-Jan-28 05:45 295 2 gusting 6 3.3
2020-Jan-28 05:43 295 0 gusting 3 3.3
2020-Jan-28 05:34 291 0 gusting 2 3.3
2020-Jan-28 05:25 289 0 gusting 4 3.3
2020-Jan-28 05:16 274 0 gusting 3 3.3
2020-Jan-28 05:07 276 0 gusting 3 3.3
2020-Jan-28 05:00 274 3.3
2020-Jan-28 04:49 270 0 gusting 2 3.9
2020-Jan-28 04:45 259 3.3
2020-Jan-28 04:31 285 0 gusting 2 3.9
2020-Jan-28 04:30 295 0 gusting 3 3.3
2020-Jan-28 04:22 291 0 gusting 4 3.9
2020-Jan-28 04:15 304 1 gusting 4 3.9
2020-Jan-28 04:13 270 0 gusting 3 3.9
2020-Jan-28 04:04 288 0 gusting 4 3.9
2020-Jan-28 04:00 303 0 gusting 4 3.9
2020-Jan-28 03:46 292 0 gusting 2 4.4
2020-Jan-28 03:45 283 3.9
2020-Jan-28 03:37 287 1 gusting 3 4.4
2020-Jan-28 03:30 267 1 gusting 6 3.9
2020-Jan-28 03:19 292 0 gusting 2 4.4
2020-Jan-28 03:15 281 3.9
2020-Jan-28 03:01 282 0 gusting 3 4.4
2020-Jan-28 03:00 281 4.4
2020-Jan-28 02:52 274 0 gusting 2 4.4
2020-Jan-28 02:45 299 4.4
2020-Jan-28 02:34 271 0 gusting 4 4.4
2020-Jan-28 02:25 270 0 gusting 2 4.4
2020-Jan-28 02:16 279 4.4
2020-Jan-28 02:07 277 0 gusting 2 4.4
2020-Jan-28 02:00 283 4.4
2020-Jan-28 01:49 276 0 gusting 4 4.4
2020-Jan-28 01:45 269 4.4
2020-Jan-28 01:31 272 0 gusting 1 4.4
2020-Jan-28 01:22 273 0 gusting 2 4.4
2020-Jan-28 01:15 270 4.4
2020-Jan-28 01:04 268 4.4
2020-Jan-28 01:00 239 4.4
2020-Jan-28 00:46 275 0 gusting 2 4.4
2020-Jan-28 00:45 281 4.4
2020-Jan-28 00:37 278 4.4
2020-Jan-28 00:30 312 4.4
2020-Jan-28 00:19 269 4.4
2020-Jan-28 00:15 273 4.4
2020-Jan-28 00:01 275 0 gusting 2 4.4
2020-Jan-28 00:00 288 0 gusting 2 4.4
2020-Jan-27 23:52 283 4.4
2020-Jan-27 23:45 306 4.4
2020-Jan-27 23:34 270 4.4
2020-Jan-27 23:30 271 4.4
2020-Jan-27 23:16 280 5.0
2020-Jan-27 23:15 267 5.0
2020-Jan-27 23:07 253 5.6
2020-Jan-27 22:58 279 0 gusting 2 5.6
2020-Jan-27 22:49 287 0 gusting 2 5.6
2020-Jan-27 22:45 293 0 gusting 3 5.0
2020-Jan-27 22:31 288 1 gusting 5 5.6
2020-Jan-27 22:30 271 0 gusting 6 5.6
2020-Jan-27 22:22 285 1 gusting 5 5.6
2020-Jan-27 22:15 285 0 gusting 6 5.6
2020-Jan-27 22:04 283 2 gusting 7 6.1
2020-Jan-27 22:00 299 0 gusting 8 5.6
2020-Jan-27 21:46 281 1 gusting 4 6.1
2020-Jan-27 21:45 279 1 gusting 4 5.6
2020-Jan-27 21:37 290 1 gusting 5 6.1
2020-Jan-27 21:30 289 6.1
2020-Jan-27 21:19 294 1 gusting 6 6.1
2020-Jan-27 21:15 298 6.1
2020-Jan-27 21:01 291 1 gusting 6 6.1
2020-Jan-27 21:00 310 1 gusting 6 6.1
2020-Jan-27 20:52 313 1 gusting 6 6.7
2020-Jan-27 20:45 295 2 gusting 6 6.1
2020-Jan-27 20:34 279 1 gusting 7 6.7
2020-Jan-27 20:25 288 1 gusting 7 6.7
2020-Jan-27 20:16 281 1 gusting 6 6.7
2020-Jan-27 20:07 274 0 gusting 6 6.1
2020-Jan-27 19:58 276 0 gusting 3 6.7
2020-Jan-27 19:49 256 0 gusting 4 6.7
2020-Jan-27 19:40 261 0 gusting 3 6.7
2020-Jan-27 19:31 280 1 gusting 6 6.1
2020-Jan-27 19:22 251 0 gusting 3 6.1
2020-Jan-27 19:13 272 1 gusting 4 6.1
2020-Jan-27 19:04 268 1 gusting 6 6.1
2020-Jan-27 18:55 269 1 gusting 6 6.1
2020-Jan-27 18:46 281 0 gusting 6 5.6
2020-Jan-27 18:37 257 1 gusting 6 5.6
2020-Jan-27 18:28 264 1 gusting 7 5.6
2020-Jan-27 18:19 264 2 gusting 8 5.6
2020-Jan-27 18:10 272 1 gusting 4 5.6
2020-Jan-27 18:01 261 1 gusting 5 5.6
2020-Jan-27 17:52 228 1 gusting 5 5.6
2020-Jan-27 17:45 153 1 gusting 5 5.6
2020-Jan-27 17:43 218 2 gusting 6 5.6
2020-Jan-27 17:34 226 1 gusting 6 5.6
2020-Jan-27 17:25 225 1 gusting 6 5.6
2020-Jan-27 17:16 244 1 gusting 6 5.6
2020-Jan-27 17:07 225 0 gusting 3 5.0
2020-Jan-27 17:00 203 0 gusting 6 5.0
2020-Jan-27 16:58 243 1 gusting 4 5.0
2020-Jan-27 16:49 249 1 gusting 5 5.0
2020-Jan-27 16:40 255 1 gusting 5 5.0
2020-Jan-27 16:31 247 1 gusting 4 5.6
2020-Jan-27 16:22 257 1 gusting 9 5.6
2020-Jan-27 16:15 145 0 gusting 5 5.0
2020-Jan-27 16:13 212 1 gusting 6 5.6
2020-Jan-27 16:04 236 1 gusting 4 5.6
2020-Jan-27 15:55 199 1 gusting 6 5.6
2020-Jan-27 15:46 209 1 gusting 5 5.0
2020-Jan-27 15:37 216 2 gusting 7 5.0
2020-Jan-27 15:30 179 1 gusting 7 5.0
2020-Jan-27 15:28 212 2 gusting 6 5.0
2020-Jan-27 15:19 210 1 gusting 6 5.0
2020-Jan-27 15:10 197 1 gusting 6 4.4
2020-Jan-27 15:01 227 1 gusting 5 4.4
2020-Jan-27 15:00 201 1 gusting 5 3.9
2020-Jan-27 14:52 175 0 gusting 3 4.4
2020-Jan-27 14:45 167 0 gusting 6 3.9
2020-Jan-27 14:34 182 0 gusting 2 3.9
2020-Jan-27 14:30 201 3.3
2020-Jan-27 14:16 218 0 gusting 4 3.3
2020-Jan-27 14:07 195 0 gusting 4 3.3
2020-Jan-27 14:00 192 0 gusting 3 2.8
2020-Jan-27 13:49 161 1 gusting 3 2.8
2020-Jan-27 13:45 156 1 gusting 2 2.2
2020-Jan-27 13:31 171 0 gusting 3 2.2
2020-Jan-27 13:30 196 0 gusting 3 2.2
2020-Jan-27 13:22 175 0 gusting 2 2.2
2020-Jan-27 13:15 208 1.7
2020-Jan-27 13:04 183 0 gusting 3 1.7
2020-Jan-27 13:00 205 0 gusting 3 1.7
2020-Jan-27 12:46 174 1 gusting 2 1.7
2020-Jan-27 12:37 179 0 gusting 1 1.1
2020-Jan-27 12:28 187 0 gusting 1 1.1
2020-Jan-27 12:19 177 0 gusting 4 1.1
2020-Jan-27 12:10 174 0 gusting 3 1.1
2020-Jan-27 12:01 173 0 gusting 5 1.1
2020-Jan-27 11:52 177 0 gusting 3 1.1
2020-Jan-27 11:43 174 0 gusting 2 1.1
2020-Jan-27 11:34 165 1 gusting 3 1.1
2020-Jan-27 11:25 173 1 gusting 3 1.1
2020-Jan-27 11:16 171 1 gusting 3 1.1
2020-Jan-27 11:07 176 0 gusting 2 1.1
2020-Jan-27 10:58 160 0.6
2020-Jan-27 10:49 196 0.6
2020-Jan-27 10:40 196 0.6
2020-Jan-27 10:31 188 0.6
2020-Jan-27 10:22 156 0 gusting 1 1.1
2020-Jan-27 10:13 161 0 gusting 1 1.1
2020-Jan-27 10:04 164 0 gusting 1 1.1
2020-Jan-27 09:55 163 0 gusting 2 1.1
2020-Jan-27 09:46 167 0 gusting 2 1.1
2020-Jan-27 09:37 166 0 gusting 2 1.1
2020-Jan-27 09:28 167 0 gusting 2 1.1
2020-Jan-27 09:19 173 0 gusting 2 1.1
2020-Jan-27 09:10 176 0 gusting 2 1.1
2020-Jan-27 09:01 187 1.1
2020-Jan-27 08:52 173 0 gusting 2 1.1
2020-Jan-27 08:43 171 0 gusting 1 0.6
2020-Jan-27 08:34 175 0 gusting 2 0.6
2020-Jan-27 08:25 185 0 gusting 3 0.6
2020-Jan-27 08:16 168 0 gusting 2 0.6
2020-Jan-27 08:07 176 0 gusting 1 -0.0
2020-Jan-27 07:58 181 -0.0
2020-Jan-27 07:49 -0.6
2020-Jan-27 07:40 -0.6
2020-Jan-27 07:31 -0.6
2020-Jan-27 07:22 -0.6
2020-Jan-27 07:13 -0.0
2020-Jan-27 07:04 184 -0.0
2020-Jan-27 06:55 181 0 gusting 1 -0.0
2020-Jan-27 06:46 167 0 gusting 1 -0.0
2020-Jan-27 06:37 175 -0.6
2020-Jan-27 06:28 217 -0.6
2020-Jan-27 06:19 245 -0.6
2020-Jan-27 06:10 -1.1
2020-Jan-27 06:01 -0.6
2020-Jan-27 05:52 -0.0
2020-Jan-27 05:43 -0.0
2020-Jan-27 05:34 204 -0.0
2020-Jan-27 05:25 205 -0.0
2020-Jan-27 05:16 -0.0
2020-Jan-27 05:07 239 -0.0
2020-Jan-27 04:58 193 0.6
2020-Jan-27 04:49 237 0.6
2020-Jan-27 04:40 223 1.1
2020-Jan-27 04:31 221 1.1
2020-Jan-27 04:22 217 1.7
2020-Jan-27 04:13 250 1.7
2020-Jan-27 04:04 235 1.7
2020-Jan-27 03:55 231 1.1
2020-Jan-27 03:46 233 1.1
2020-Jan-27 03:37 240 1.1
2020-Jan-27 03:28 230 1.1
2020-Jan-27 03:19 234 1.1
2020-Jan-27 03:10 237 2.2
2020-Jan-27 03:01 244 2.8
2020-Jan-27 02:52 241 2.8
2020-Jan-27 02:43 244 0 gusting 2 3.3
2020-Jan-27 02:34 256 3.3
2020-Jan-27 02:25 279 1 gusting 4 3.9
2020-Jan-27 02:16 282 1 gusting 7 3.9
2020-Jan-27 02:07 275 2 gusting 6 3.9
2020-Jan-27 01:58 275 1 gusting 6 3.9
2020-Jan-27 01:49 269 2 gusting 6 3.9
2020-Jan-27 01:40 261 1 gusting 6 3.3
2020-Jan-27 01:31 254 1 gusting 8 3.3
2020-Jan-27 01:22 255 1 gusting 2 3.3
2020-Jan-27 01:13 270 1 gusting 6 3.9
2020-Jan-27 01:04 267 0 gusting 5 3.3
2020-Jan-27 00:55 263 1 gusting 5 3.9
2020-Jan-27 00:46 248 1 gusting 4 3.9
2020-Jan-27 00:37 260 0 gusting 4 3.9
2020-Jan-27 00:28 250 0 gusting 4 3.9
2020-Jan-27 00:19 268 1 gusting 5 3.9
2020-Jan-27 00:10 265 0 gusting 4 3.9
2020-Jan-27 00:01 247 0 gusting 4 4.4
2020-Jan-26 23:52 275 0 gusting 5 4.4
2020-Jan-26 23:43 287 1 gusting 4 4.4
2020-Jan-26 23:34 283 0 gusting 2 5.0
2020-Jan-26 23:25 269 1 gusting 6 5.6
2020-Jan-26 23:16 298 4 gusting 9 5.6
2020-Jan-26 23:07 290 1 gusting 7 5.6